Total_Precipitation_Accumulation
0.08 0.05 0.11 0.09 0.06 0.06 0.08 0.10 0.12 0.12 0.12 0.14 0.16 0.14 0.12 0.08 0.07 0.08 0.11 0.12 0.11 0.12 0.13 0.16 0.20 0.21 0.24 0.24 0.24 0.22 0.19 0.18 0.23 0.22 0.21 0.23 0.28 0.39 0.45 0.45 0.52 0.39 0.33
0.05 0.04 0.10 0.08 0.06 0.07 0.08 0.10 0.11 0.11 0.10 0.11 0.14 0.13 0.10 0.08 0.07 0.07 0.10 0.11 0.10 0.10 0.10 0.13 0.14 0.15 0.19 0.19 0.16 0.14 0.14 0.15 0.18 0.21 0.22 0.21 0.26 0.40 0.48 0.44 0.52 0.33 0.25
0.04 0.04 0.07 0.08 0.07 0.07 0.07 0.10 0.12 0.12 0.10 0.09 0.10 0.11 0.09 0.08 0.09 0.09 0.10 0.14 0.17 0.15 0.11 0.10 0.10 0.11 0.13 0.13 0.10 0.09 0.11 0.13 0.18 0.24 0.33 0.33 0.22 0.40 0.49 0.44 0.33 0.20 0.22
0.05 0.04 0.05 0.07 0.06 0.07 0.07 0.08 0.11 0.12 0.12 0.13 0.14 0.12 0.10 0.10 0.10 0.10 0.10 0.13 0.16 0.13 0.12 0.08 0.07 0.07 0.08 0.07 0.06 0.08 0.11 0.16 0.21 0.29 0.56 0.58 0.29 0.36 0.44 0.39 0.30 0.23 0.22
0.08 0.05 0.07 0.07 0.06 0.07 0.07 0.08 0.09 0.12 0.13 0.15 0.15 0.14 0.13 0.12 0.11 0.10 0.10 0.12 0.13 0.09 0.08 0.08 0.08 0.07 0.06 0.04 0.05 0.07 0.11 0.17 0.21 0.34 0.47 0.55 0.52 0.40 0.37 0.37 0.34 0.34 0.28
0.10 0.08 0.10 0.10 0.08 0.07 0.08 0.09 0.10 0.11 0.12 0.13 0.13 0.12 0.12 0.12 0.13 0.12 0.11 0.13 0.16 0.15 0.11 0.11 0.11 0.11 0.07 0.05 0.05 0.07 0.11 0.18 0.22 0.27 0.30 0.35 0.46 0.43 0.40 0.46 0.48 0.46 0.38
0.12 0.14 0.17 0.17 0.12 0.10 0.09 0.10 0.11 0.11 0.12 0.12 0.12 0.11 0.10 0.11 0.11 0.12 0.11 0.12 0.13 0.15 0.15 0.15 0.14 0.11 0.11 0.10 0.08 0.09 0.13 0.21 0.25 0.30 0.23 0.37 0.46 0.33 0.44 0.63 0.75 0.68 0.54
0.17 0.19 0.23 0.21 0.15 0.14 0.12 0.11 0.11 0.11 0.11 0.12 0.12 0.10 0.09 0.08 0.09 0.12 0.13 0.12 0.10 0.10 0.12 0.15 0.18 0.15 0.12 0.15 0.14 0.13 0.16 0.21 0.22 0.27 0.23 0.33 0.34 0.33 0.48 0.72 0.86 0.81 0.68
0.27 0.26 0.29 0.27 0.20 0.18 0.16 0.15 0.14 0.14 0.14 0.13 0.13 0.13 0.11 0.09 0.09 0.12 0.14 0.14 0.12 0.11 0.11 0.12 0.13 0.13 0.12 0.15 0.19 0.20 0.22 0.28 0.31 0.36 0.28 0.39 0.41 0.48 0.67 0.85 0.96 0.93 0.85
0.41 0.36 0.35 0.34 0.30 0.26 0.23 0.22 0.22 0.20 0.18 0.18 0.17 0.18 0.19 0.18 0.17 0.19 0.19 0.18 0.19 0.19 0.16 0.15 0.17 0.17 0.17 0.17 0.19 0.29 0.38 0.35 0.22 0.27 0.44 0.40 0.41 0.67 0.95 1.04 1.14 1.15 1.08
0.62 0.51 0.42 0.42 0.41 0.37 0.34 0.33 0.32 0.31 0.29 0.27 0.28 0.28 0.28 0.27 0.29 0.35 0.31 0.34 0.35 0.36 0.38 0.38 0.40 0.38 0.36 0.27 0.30 0.46 0.49 0.28 0.25 0.36 0.49 0.39 0.51 0.89 1.19 1.28 1.29 1.32 1.28
0.75 0.63 0.59 0.56 0.46 0.40 0.35 0.39 0.44 0.43 0.44 0.43 0.48 0.50 0.49 0.51 0.48 0.39 0.46 0.62 0.78 0.86 0.85 0.94 1.05 0.86 0.66 0.65 1.10 1.12 0.43 0.27 0.39 0.42 0.52 0.51 0.75 1.18 1.44 1.55 1.52 1.45 1.41
1.05 0.88 0.78 0.67 0.57 0.53 0.55 0.56 0.60 0.59 0.66 0.68 0.75 0.83 0.83 0.76 0.65 0.60 0.70 0.92 1.12 1.18 1.15 1.47 1.58 1.15 1.20 1.42 1.55 1.31 0.63 0.50 0.49 0.49 0.72 0.88 1.01 1.47 1.89 1.92 1.88 1.72 1.59
1.32 1.14 1.01 0.89 0.88 0.81 0.81 0.79 0.78 0.83 0.90 0.96 1.02 1.09 1.19 1.23 1.12 1.10 1.14 1.24 1.41 1.49 1.69 1.83 1.98 1.76 1.76 1.65 1.52 1.34 1.10 1.09 0.90 1.02 1.42 1.34 1.21 1.50 2.17 2.32 2.22 2.05 1.73
1.44 1.30 1.29 1.14 1.08 1.08 1.15 1.21 1.17 1.23 1.25 1.25 1.36 1.45 1.54 1.67 1.64 1.64 1.54 1.59 1.56 1.73 1.91 2.19 2.13 2.37 2.34 2.07 1.75 1.55 1.49 1.40 1.26 1.42 1.69 1.80 1.68 1.74 2.40 2.81 2.69 2.41 2.05
1.46 1.38 1.39 1.36 1.42 1.50 1.52 1.55 1.65 1.70 1.69 1.67 1.69 1.73 1.81 1.98 2.16 2.10 1.91 1.87 1.77 1.84 2.10 2.36 2.39 2.74 2.59 2.44 1.98 1.83 1.66 1.50 1.44 1.57 1.72 1.95 1.94 1.95 2.25 2.69 2.92 2.84 2.50
1.31 1.39 1.62 1.80 1.91 2.02 2.10 2.15 2.12 2.16 2.06 2.04 2.20 2.29 2.34 2.33 2.35 2.23 2.08 2.00 2.11 2.26 2.40 2.43 2.52 2.80 2.55 2.42 2.18 2.02 1.83 1.62 1.50 1.65 1.81 2.02 1.89 1.89 2.16 2.49 2.84 2.82 2.64
1.30 1.44 1.70 1.96 2.25 2.43 2.48 2.57 2.56 2.50 2.39 2.46 2.50 2.54 2.56 2.48 2.40 2.43 2.19 2.03 2.30 2.45 2.59 2.68 2.65 2.69 2.65 2.57 2.39 2.06 1.86 1.75 1.54 1.60 1.66 1.76 1.83 1.53 1.83 2.35 2.52 2.42 2.45
1.60 1.88 2.20 2.30 2.35 2.45 2.65 2.76 2.60 2.51 2.39 2.35 2.33 2.34 2.32 2.31 2.34 2.59 2.36 2.33 2.50 2.69 2.60 2.43 2.71 2.81 2.68 2.63 2.36 2.16 1.78 1.62 1.55 1.48 1.49 1.52 1.65 1.61 1.56 1.75 2.18 2.12 2.32
2.01 2.32 2.40 2.46 2.69 3.01 3.26 3.15 2.87 2.52 2.31 2.20 2.11 2.05 2.09 2.24 2.32 2.57 2.35 2.40 2.61 2.74 2.76 2.75 2.80 2.79 2.64 2.67 2.39 2.11 1.77 1.44 1.40 1.34 1.25 1.33 1.37 1.24 1.26 1.37 1.66 1.53 1.72
2.14 2.31 2.47 2.79 3.16 3.28 3.24 3.21 3.13 2.80 2.51 2.17 1.95 1.95 2.03 2.06 2.23 2.50 2.23 2.52 2.67 2.65 2.74 2.77 2.90 2.77 2.60 2.77 2.62 2.11 1.63 1.34 1.17 1.05 1.07 1.13 1.08 1.15 1.32 1.53 1.72 1.72 1.56
2.13 2.37 2.65 2.95 3.27 3.17 3.31 3.50 3.40 3.13 2.55 2.18 1.98 1.95 2.00 2.05 2.13 2.30 2.56 2.60 2.67 2.68 2.70 2.68 2.70 2.50 2.32 2.66 2.65 2.40 1.80 1.41 1.09 0.92 1.05 1.01 1.05 1.25 1.27 1.32 1.56 1.79 1.68
2.28 2.64 2.88 3.06 3.13 3.11 3.24 3.33 3.05 2.81 2.37 2.23 2.22 2.11 2.06 2.18 2.23 2.36 2.53 2.62 2.54 2.45 2.48 2.59 2.50 2.35 2.17 2.31 2.58 2.57 2.05 1.54 1.18 0.97 1.00 1.03 1.27 1.38 1.24 1.20 1.18 1.24 1.32
2.33 2.69 3.01 3.00 2.97 2.92 3.02 3.09 2.93 2.65 2.37 2.26 2.28 2.08 1.93 1.92 1.98 2.09 2.17 2.33 2.39 2.38 2.34 2.31 2.29 2.30 2.20 2.07 2.32 2.40 2.24 1.96 1.66 1.18 0.95 0.99 1.22 1.30 1.22 1.10 1.10 1.18 1.26
2.05 2.34 2.61 2.80 2.84 2.77 2.73 2.70 2.66 2.47 2.22 2.08 2.02 1.90 1.85 1.88 1.81 1.81 1.92 2.11 2.16 2.09 2.07 2.22 2.38 2.35 2.18 2.02 2.11 2.21 2.35 2.28 1.98 1.60 1.15 1.07 1.08 1.02 1.12 1.12 1.11 1.16 1.30
1.85 2.10 2.27 2.40 2.45 2.41 2.32 2.29 2.31 2.24 2.18 2.03 1.88 1.89 1.92 1.86 1.74 1.68 1.71 1.83 1.90 1.89 1.86 1.90 2.01 2.04 2.01 2.08 2.11 2.12 2.22 2.20 2.09 1.97 1.54 1.30 1.16 0.89 0.95 1.01 1.08 1.11 1.20